New Ulm, MN

4:27 AM CDT on August 24, 2016 (GMT -0500)
New Ulm Municipal

Weather History for KULM - June, 2013

Change the Weather History Date:

Friday, June 7, 2013

  Actual Average Record
Temperature  
Mean Temperature 58 °F -  
Max Temperature 64 °F 81 °F 98 °F (2011)
Min Temperature 53 °F 56 °F 37 °F (2011)
Degree Days  
Heating Degree Days 6    
Growing Degree Days 8 (Base 50)    
Moisture  
Dew Point 50 °F    
Average Humidity 74    
Maximum Humidity 94    
Minimum Humidity 56    
Precipitation  
Precipitation 0.00 in - - ()
Sea Level Pressure  
Sea Level Pressure 30.00 in    
Wind  
Wind Speed 2 mph (NNE)    
Max Wind Speed 6 mph    
Max Gust Speed -    
Visibility 10 miles    
Events      
Averages and records for this station are not official NWS values.
T = Trace of Precipitation, MM = Missing Value Source: NWS Daily Summary

Daily Weather History Graph

Daily Weather History Graph

Search for Another Location

Airport or City:

Trip Planner

Search our weather history database for the weather conditions in past years. The results will help you decide how hot, cold, wet, or windy it might be!

Date:

Astronomy

Jun. 07, 2013 Rise Set
Actual Time 5:34 AM CDT 8:59 PM CDT
Civil Twilight 4:58 AM CDT 9:36 PM CDT
Nautical Twilight 4:10 AM CDT 10:23 PM CDT
Astronomical Twilight 3:11 AM CDT 11:23 PM CDT
Moon 5:00 AM CDT (6/7) 8:12 PM CDT (6/7)
Length of Visible Light 16h 37m
Length of Day
15h 25m
Waning Crescent, 1% of the Moon is Illuminated
Jun 7
Waning Crescent
Jun 8
New
Jun 16
First Quarter
Jun 23
Full
Jun 29
Last Quarter

Hourly Weather History & Observations

Time (CDT) Temp. Dew Point Humidity Pressure Visibility Wind Dir Wind Speed Gust Speed Precip Events Conditions
12:13 AM 55.4 °F 51.8 °F 88% 30.03 in 10.0 mi NNE 3.5 mph - N/A   Overcast
12:32 AM 55.4 °F 51.8 °F 88% 30.04 in 10.0 mi Calm Calm - N/A   Overcast
12:53 AM 55.4 °F 51.8 °F 88% 30.03 in 10.0 mi NE 5.8 mph - N/A   Overcast
1:13 AM 55.4 °F 51.8 °F 88% 30.03 in 10.0 mi NE 4.6 mph - N/A   Overcast
1:32 AM 55.4 °F 51.8 °F 88% 30.03 in 10.0 mi NE 5.8 mph - N/A   Overcast
1:53 AM 55.4 °F 51.8 °F 88% 30.03 in 10.0 mi NE 3.5 mph - N/A   Overcast
2:13 AM 55.4 °F 51.8 °F 88% 30.02 in 10.0 mi NE 3.5 mph - N/A   Overcast
2:33 AM 55.4 °F 51.8 °F 88% 30.02 in 10.0 mi Calm Calm - N/A   Overcast
2:53 AM 55.4 °F 51.8 °F 88% 30.02 in 10.0 mi NE 3.5 mph - N/A   Overcast
3:13 AM 55.4 °F 51.8 °F 88% 30.02 in 10.0 mi NE 4.6 mph - N/A   Overcast
3:33 AM 55.4 °F 51.8 °F 88% 30.02 in 10.0 mi NNE 3.5 mph - N/A   Overcast
3:53 AM 55.4 °F 51.8 °F 88% 30.02 in 10.0 mi Calm Calm - N/A   Overcast
4:12 AM 55.4 °F 51.8 °F 88% 30.02 in 10.0 mi Calm Calm - N/A   Overcast
4:33 AM 53.6 °F 51.8 °F 94% 30.02 in 10.0 mi Calm Calm - N/A   Overcast
4:53 AM 53.6 °F 51.8 °F 94% 30.02 in 10.0 mi Calm Calm - N/A   Overcast
5:12 AM 53.6 °F 51.8 °F 94% 30.02 in 10.0 mi Calm Calm - N/A   Overcast
5:33 AM 53.6 °F 51.8 °F 94% 30.03 in 10.0 mi NW 3.5 mph - N/A   Overcast
5:53 AM 53.6 °F 51.8 °F 94% 30.03 in 10.0 mi Calm Calm - N/A   Mostly Cloudy
6:12 AM 55.4 °F 51.8 °F 88% 30.03 in 10.0 mi Calm Calm - N/A   Mostly Cloudy
6:33 AM 55.4 °F 51.8 °F 88% 30.04 in 10.0 mi NW 4.6 mph - N/A   Overcast
6:53 AM 55.4 °F 51.8 °F 88% 30.04 in 10.0 mi NW 3.5 mph - N/A   Mostly Cloudy
7:12 AM 55.4 °F 51.8 °F 88% 30.04 in 10.0 mi NNW 3.5 mph - N/A   Scattered Clouds
7:33 AM 55.4 °F 51.8 °F 88% 30.05 in 10.0 mi NW 4.6 mph - N/A   Mostly Cloudy
7:53 AM 55.4 °F 51.8 °F 88% 30.05 in 10.0 mi NW 4.6 mph - N/A   Overcast
8:12 AM 55.4 °F 51.8 °F 88% 30.06 in 10.0 mi NNW 4.6 mph - N/A   Mostly Cloudy
8:33 AM 55.4 °F 51.8 °F 88% 30.06 in 10.0 mi NW 3.5 mph - N/A   Mostly Cloudy
8:53 AM 55.4 °F 51.8 °F 88% 30.06 in 10.0 mi Calm Calm - N/A   Mostly Cloudy
9:13 AM 57.2 °F 51.8 °F 82% 30.06 in 10.0 mi North 3.5 mph - N/A   Mostly Cloudy
9:33 AM 57.2 °F 51.8 °F 82% 30.06 in 10.0 mi North 3.5 mph - N/A   Mostly Cloudy
9:53 AM 57.2 °F 51.8 °F 82% 30.06 in 10.0 mi Calm Calm - N/A   Mostly Cloudy
10:13 AM 57.2 °F 51.8 °F 82% 30.05 in 10.0 mi NNW 5.8 mph - N/A   Mostly Cloudy
10:33 AM 57.2 °F 51.8 °F 82% 30.04 in 10.0 mi Calm Calm - N/A   Mostly Cloudy
10:53 AM 57.2 °F 51.8 °F 82% 30.04 in 10.0 mi North 3.5 mph - N/A   Mostly Cloudy
11:12 AM 59.0 °F 51.8 °F 77% 30.03 in 10.0 mi NE 3.5 mph - N/A   Mostly Cloudy
11:33 AM 59.0 °F 51.8 °F 77% 30.03 in 10.0 mi Calm Calm - N/A   Mostly Cloudy
11:53 AM 60.8 °F 51.8 °F 72% 30.03 in 10.0 mi NNE 3.5 mph - N/A   Mostly Cloudy
12:13 PM 60.8 °F 50.0 °F 68% 30.03 in 10.0 mi Calm Calm - N/A   Overcast
12:33 PM 60.8 °F 51.8 °F 72% 30.02 in 10.0 mi North 3.5 mph - N/A   Overcast
12:52 PM 60.8 °F 50.0 °F 68% 30.02 in 10.0 mi Calm Calm - N/A   Mostly Cloudy
1:13 PM 62.6 °F 50.0 °F 63% 30.02 in 10.0 mi Calm Calm - N/A   Mostly Cloudy
1:33 PM 60.8 °F 48.2 °F 63% 30.01 in 10.0 mi Calm Calm - N/A   Overcast
1:52 PM 62.6 °F 48.2 °F 59% 30.01 in 10.0 mi Calm Calm - N/A   Mostly Cloudy
2:13 PM 62.6 °F 48.2 °F 59% 30.01 in 10.0 mi Calm Calm - N/A   Mostly Cloudy
2:33 PM 62.6 °F 48.2 °F 59% 30.01 in 10.0 mi Calm Calm - N/A   Mostly Cloudy
2:52 PM 62.6 °F 48.2 °F 59% 30.00 in 10.0 mi Calm Calm - N/A   Mostly Cloudy
3:13 PM 62.6 °F 48.2 °F 59% 29.99 in 10.0 mi Calm Calm - N/A   Mostly Cloudy
3:33 PM 64.4 °F 48.2 °F 56% 29.99 in 10.0 mi Calm Calm - N/A   Mostly Cloudy
3:52 PM 62.6 °F 48.2 °F 59% 29.98 in 10.0 mi East 3.5 mph - N/A   Mostly Cloudy
4:13 PM 64.4 °F 48.2 °F 56% 29.98 in 10.0 mi Calm Calm - N/A   Mostly Cloudy
4:33 PM 64.4 °F 48.2 °F 56% 29.97 in 10.0 mi Calm Calm - N/A   Mostly Cloudy
4:53 PM 64.4 °F 50.0 °F 59% 29.97 in 10.0 mi SW 3.5 mph - N/A   Mostly Cloudy
5:13 PM 64.4 °F 48.2 °F 56% 29.96 in 10.0 mi Calm Calm - N/A   Mostly Cloudy
5:33 PM 64.4 °F 48.2 °F 56% 29.96 in 10.0 mi Calm Calm - N/A   Overcast
5:53 PM 64.4 °F 50.0 °F 59% 29.95 in 10.0 mi Calm Calm - N/A   Overcast
6:13 PM 64.4 °F 48.2 °F 56% 29.95 in 10.0 mi SE 3.5 mph - N/A   Mostly Cloudy
6:33 PM 64.4 °F 48.2 °F 56% 29.94 in 10.0 mi Calm Calm - N/A   Clear
6:53 PM 64.4 °F 48.2 °F 56% 29.94 in 10.0 mi Calm Calm - N/A   Scattered Clouds
7:13 PM 64.4 °F 48.2 °F 56% 29.94 in 10.0 mi Calm Calm - N/A   Mostly Cloudy
7:32 PM 64.4 °F 48.2 °F 56% 29.93 in 10.0 mi Calm Calm - N/A   Mostly Cloudy
7:53 PM 64.4 °F 48.2 °F 56% 29.93 in 10.0 mi Calm Calm - N/A   Clear
8:13 PM 64.4 °F 48.2 °F 56% 29.94 in 10.0 mi Calm Calm - N/A   Clear
8:32 PM 64.4 °F 48.2 °F 56% 29.94 in 10.0 mi Calm Calm - N/A   Clear
8:53 PM 62.6 °F 48.2 °F 59% 29.93 in 10.0 mi Calm Calm - N/A   Clear
9:13 PM 62.6 °F 48.2 °F 59% 29.93 in 10.0 mi Calm Calm - N/A   Clear
9:32 PM 59.0 °F 48.2 °F 67% 29.94 in 10.0 mi East 3.5 mph - N/A   Clear
9:53 PM 62.6 °F 50.0 °F 63% 29.94 in 10.0 mi Calm Calm - N/A   Clear
10:13 PM 60.8 °F 50.0 °F 68% 29.94 in 10.0 mi Calm Calm - N/A   Clear
10:32 PM 60.8 °F 48.2 °F 63% 29.94 in 10.0 mi Calm Calm - N/A   Clear
10:53 PM 60.8 °F 48.2 °F 63% 29.93 in 10.0 mi East 3.5 mph - N/A   Clear
11:13 PM 59.0 °F 50.0 °F 72% 29.92 in 10.0 mi Calm Calm - N/A   Clear
11:32 PM 59.0 °F 50.0 °F 72% 29.92 in 10.0 mi Calm Calm - N/A   Clear
11:53 PM 57.2 °F 50.0 °F 77% 29.92 in 10.0 mi SE 3.5 mph - N/A   Clear